Precipitable_Water
0.24 0.18 0.17 0.16 0.18 0.21 0.23 0.23 0.22 0.22 0.20 0.19 0.18 0.16 0.15 0.14 0.14 0.16 0.17 0.18 0.19 0.16 0.15 0.16 0.17 0.17 0.17 0.18 0.20 0.24 0.36 0.46 0.50 0.49 0.52 0.57 0.61 0.63 0.65 0.66 0.67 0.72 0.77 0.94 1.02 1.01 0.98 0.99 1.09 1.14 1.17 1.16 1.15 1.15 1.19 1.22 1.25 1.29 1.32 1.37 1.38 1.46 1.49 1.48 1.47 1.46 1.46 1.42 1.41 1.45 1.41 1.38 1.42 1.44 1.47 1.46 1.49 1.50 1.51 1.52 1.51 1.49 1.47 1.45 1.43 1.42
0.24 0.18 0.17 0.20 0.22 0.23 0.24 0.25 0.24 0.22 0.21 0.19 0.17 0.16 0.15 0.15 0.14 0.16 0.16 0.18 0.19 0.16 0.15 0.16 0.16 0.16 0.18 0.19 0.22 0.24 0.27 0.33 0.41 0.45 0.48 0.48 0.52 0.57 0.61 0.64 0.68 0.76 0.85 0.89 0.95 0.97 0.97 1.02 1.10 1.13 1.13 1.15 1.08 1.10 1.16 1.20 1.25 1.28 1.34 1.36 1.41 1.46 1.46 1.45 1.45 1.46 1.45 1.43 1.43 1.38 1.35 1.37 1.38 1.37 1.36 1.36 1.42 1.45 1.48 1.50 1.48 1.45 1.43 1.42 1.40 1.39
0.18 0.15 0.19 0.23 0.25 0.26 0.25 0.24 0.24 0.22 0.20 0.19 0.17 0.17 0.15 0.15 0.17 0.18 0.17 0.18 0.18 0.17 0.15 0.17 0.16 0.16 0.18 0.20 0.23 0.23 0.23 0.29 0.43 0.46 0.43 0.43 0.45 0.49 0.53 0.58 0.68 0.74 0.73 0.78 0.87 0.93 0.98 1.03 1.07 1.09 1.12 1.13 1.14 1.13 1.13 1.21 1.25 1.28 1.33 1.37 1.40 1.45 1.43 1.42 1.45 1.43 1.41 1.43 1.44 1.39 1.36 1.35 1.33 1.41 1.42 1.42 1.44 1.46 1.44 1.43 1.43 1.43 1.41 1.38 1.35 1.33
0.15 0.16 0.21 0.25 0.26 0.24 0.24 0.24 0.23 0.22 0.21 0.19 0.18 0.15 0.14 0.17 0.15 0.14 0.17 0.18 0.19 0.17 0.16 0.17 0.16 0.17 0.20 0.23 0.24 0.28 0.27 0.25 0.33 0.47 0.51 0.52 0.46 0.44 0.47 0.54 0.59 0.63 0.68 0.70 0.77 0.85 0.94 0.99 1.03 1.06 1.09 1.12 1.13 1.13 1.15 1.19 1.21 1.28 1.34 1.37 1.40 1.42 1.41 1.41 1.44 1.44 1.44 1.44 1.43 1.40 1.37 1.36 1.35 1.32 1.39 1.41 1.43 1.42 1.40 1.37 1.42 1.43 1.39 1.30 1.22 1.19
0.17 0.20 0.24 0.25 0.25 0.24 0.22 0.23 0.21 0.20 0.18 0.20 0.18 0.17 0.15 0.16 0.17 0.16 0.15 0.16 0.17 0.18 0.18 0.18 0.18 0.17 0.19 0.19 0.22 0.29 0.36 0.33 0.30 0.33 0.43 0.51 0.53 0.55 0.61 0.65 0.65 0.63 0.68 0.73 0.77 0.83 0.90 0.94 1.00 1.05 1.10 1.15 1.10 1.12 1.15 1.17 1.20 1.27 1.32 1.37 1.40 1.39 1.37 1.41 1.42 1.41 1.40 1.40 1.35 1.32 1.33 1.37 1.34 1.34 1.33 1.32 1.30 1.34 1.35 1.34 1.34 1.30 1.24 1.19 1.15 1.15
0.22 0.24 0.26 0.24 0.23 0.22 0.21 0.20 0.21 0.20 0.17 0.18 0.19 0.18 0.17 0.17 0.16 0.16 0.16 0.14 0.13 0.14 0.20 0.21 0.15 0.14 0.18 0.22 0.23 0.29 0.31 0.30 0.36 0.31 0.29 0.38 0.47 0.53 0.52 0.57 0.66 0.69 0.74 0.78 0.77 0.82 0.89 0.96 1.03 1.08 1.12 1.11 1.11 1.14 1.18 1.22 1.24 1.28 1.32 1.36 1.37 1.36 1.37 1.38 1.39 1.38 1.37 1.33 1.27 1.21 1.18 1.14 1.14 1.11 1.14 1.12 1.14 1.19 1.21 1.21 1.24 1.18 1.16 1.14 1.12 1.12
0.23 0.28 0.26 0.24 0.23 0.22 0.21 0.19 0.22 0.22 0.18 0.16 0.16 0.18 0.17 0.16 0.16 0.16 0.15 0.14 0.12 0.12 0.21 0.24 0.14 0.13 0.18 0.19 0.22 0.26 0.29 0.29 0.34 0.34 0.33 0.38 0.46 0.52 0.54 0.59 0.62 0.66 0.69 0.77 0.81 0.87 0.90 0.96 1.02 1.08 1.12 1.13 1.12 1.19 1.24 1.23 1.25 1.28 1.31 1.33 1.33 1.32 1.34 1.37 1.36 1.36 1.35 1.30 1.27 1.22 1.18 1.14 1.09 1.06 1.13 1.21 1.24 1.23 1.23 1.20 1.10 1.10 1.13 1.14 1.11 1.10
0.25 0.24 0.25 0.25 0.23 0.22 0.21 0.19 0.23 0.22 0.18 0.15 0.19 0.20 0.19 0.17 0.16 0.15 0.16 0.16 0.15 0.20 0.22 0.23 0.21 0.15 0.14 0.17 0.24 0.30 0.29 0.31 0.32 0.32 0.37 0.42 0.49 0.55 0.57 0.60 0.64 0.67 0.70 0.74 0.79 0.86 0.93 1.00 1.05 1.06 1.13 1.16 1.17 1.23 1.24 1.22 1.24 1.24 1.27 1.29 1.29 1.31 1.32 1.34 1.34 1.33 1.35 1.29 1.25 1.24 1.20 1.18 1.16 1.13 1.12 1.18 1.22 1.25 1.18 1.08 1.05 1.05 1.07 1.11 1.12 1.09
0.26 0.25 0.25 0.24 0.24 0.23 0.20 0.21 0.24 0.23 0.19 0.18 0.21 0.21 0.19 0.18 0.18 0.19 0.19 0.18 0.19 0.18 0.15 0.19 0.23 0.16 0.15 0.19 0.28 0.31 0.25 0.27 0.31 0.34 0.37 0.43 0.50 0.56 0.61 0.66 0.68 0.71 0.74 0.80 0.83 0.88 0.94 1.01 1.09 1.13 1.15 1.21 1.21 1.23 1.19 1.21 1.23 1.25 1.28 1.28 1.30 1.30 1.30 1.30 1.32 1.32 1.35 1.32 1.28 1.25 1.22 1.18 1.19 1.19 1.18 1.20 1.18 1.10 1.05 1.00 1.00 1.00 1.03 1.07 1.09 1.09
0.28 0.29 0.30 0.28 0.26 0.22 0.22 0.24 0.25 0.24 0.19 0.21 0.23 0.23 0.22 0.22 0.21 0.22 0.20 0.20 0.21 0.18 0.12 0.16 0.21 0.15 0.15 0.19 0.22 0.31 0.28 0.25 0.28 0.33 0.36 0.39 0.48 0.59 0.65 0.70 0.73 0.76 0.80 0.85 0.90 0.97 1.01 1.07 1.14 1.19 1.22 1.23 1.22 1.23 1.23 1.24 1.24 1.25 1.27 1.25 1.26 1.26 1.27 1.28 1.30 1.32 1.32 1.31 1.30 1.24 1.19 1.15 1.12 1.14 1.16 1.15 1.07 0.97 0.97 0.92 0.93 0.95 0.97 0.98 0.98 1.00
0.31 0.34 0.33 0.29 0.24 0.23 0.24 0.25 0.25 0.24 0.23 0.26 0.23 0.21 0.22 0.22 0.22 0.23 0.23 0.23 0.21 0.14 0.14 0.18 0.21 0.18 0.13 0.18 0.23 0.26 0.29 0.33 0.33 0.34 0.40 0.44 0.47 0.60 0.67 0.71 0.73 0.75 0.80 0.85 0.91 1.00 1.05 1.14 1.20 1.23 1.19 1.23 1.23 1.23 1.22 1.22 1.22 1.24 1.23 1.24 1.23 1.25 1.26 1.27 1.28 1.29 1.27 1.28 1.28 1.22 1.17 1.12 1.09 1.10 1.10 1.02 0.95 0.88 0.87 0.85 0.87 0.87 0.86 0.87 0.88 0.92
0.30 0.30 0.27 0.27 0.29 0.27 0.26 0.23 0.25 0.26 0.25 0.24 0.22 0.21 0.20 0.20 0.22 0.21 0.20 0.22 0.16 0.12 0.16 0.19 0.19 0.20 0.13 0.18 0.29 0.39 0.45 0.45 0.41 0.36 0.40 0.45 0.50 0.57 0.64 0.68 0.73 0.74 0.80 0.86 0.92 1.01 1.09 1.17 1.22 1.22 1.19 1.19 1.19 1.21 1.21 1.22 1.22 1.22 1.22 1.24 1.22 1.22 1.23 1.26 1.29 1.30 1.28 1.26 1.25 1.22 1.16 1.10 1.12 1.11 1.03 0.93 0.82 0.78 0.78 0.80 0.79 0.82 0.82 0.81 0.85 0.87
0.25 0.26 0.29 0.29 0.33 0.27 0.25 0.22 0.23 0.25 0.25 0.23 0.22 0.21 0.17 0.17 0.17 0.14 0.17 0.14 0.13 0.12 0.18 0.21 0.22 0.18 0.17 0.21 0.34 0.44 0.49 0.52 0.53 0.49 0.48 0.52 0.54 0.59 0.65 0.70 0.71 0.75 0.80 0.82 0.84 0.88 0.99 1.07 1.13 1.17 1.17 1.15 1.14 1.18 1.21 1.23 1.23 1.23 1.22 1.23 1.21 1.20 1.24 1.26 1.30 1.30 1.27 1.23 1.21 1.19 1.16 1.11 1.14 1.09 0.96 0.88 0.78 0.76 0.75 0.79 0.81 0.80 0.78 0.80 0.79 0.82
0.23 0.27 0.27 0.27 0.28 0.30 0.27 0.21 0.21 0.20 0.22 0.22 0.20 0.20 0.17 0.15 0.15 0.13 0.15 0.16 0.15 0.17 0.21 0.19 0.24 0.18 0.23 0.28 0.42 0.46 0.55 0.60 0.59 0.57 0.58 0.60 0.61 0.63 0.67 0.70 0.73 0.76 0.80 0.83 0.88 0.92 0.92 1.02 1.11 1.13 1.13 1.07 1.07 1.14 1.21 1.24 1.24 1.24 1.22 1.22 1.22 1.24 1.29 1.30 1.32 1.30 1.24 1.21 1.21 1.21 1.19 1.13 1.10 0.98 0.89 0.85 0.79 0.78 0.81 0.86 0.85 0.83 0.81 0.79 0.78 0.78
0.17 0.17 0.21 0.24 0.22 0.28 0.26 0.25 0.24 0.23 0.24 0.24 0.26 0.24 0.22 0.20 0.16 0.13 0.14 0.13 0.14 0.16 0.19 0.23 0.18 0.17 0.19 0.26 0.49 0.56 0.63 0.65 0.66 0.67 0.67 0.69 0.69 0.71 0.74 0.77 0.78 0.80 0.84 0.89 0.90 0.92 0.97 1.04 1.10 1.11 1.10 1.10 1.10 1.12 1.20 1.25 1.24 1.24 1.21 1.23 1.24 1.28 1.34 1.31 1.32 1.28 1.24 1.19 1.21 1.22 1.21 1.13 1.03 0.91 0.86 0.84 0.84 0.83 0.85 0.92 0.90 0.88 0.86 0.82 0.80 0.81
0.20 0.19 0.23 0.25 0.26 0.26 0.24 0.27 0.28 0.26 0.24 0.26 0.27 0.27 0.22 0.20 0.23 0.16 0.19 0.17 0.16 0.17 0.16 0.18 0.17 0.23 0.27 0.48 0.55 0.62 0.65 0.66 0.69 0.68 0.69 0.68 0.70 0.72 0.73 0.73 0.76 0.81 0.87 0.94 0.96 0.96 1.01 1.05 1.09 1.07 1.07 1.14 1.15 1.15 1.20 1.24 1.23 1.20 1.20 1.20 1.19 1.18 1.25 1.31 1.31 1.24 1.21 1.16 1.20 1.20 1.16 1.10 0.99 0.91 0.89 0.87 0.89 0.89 0.91 0.93 0.92 0.87 0.84 0.82 0.81 0.84
0.21 0.18 0.24 0.24 0.26 0.25 0.27 0.28 0.28 0.28 0.20 0.26 0.25 0.21 0.23 0.29 0.25 0.21 0.21 0.22 0.20 0.17 0.15 0.23 0.21 0.29 0.41 0.43 0.54 0.59 0.58 0.61 0.65 0.66 0.68 0.69 0.72 0.74 0.72 0.75 0.80 0.86 0.90 0.95 0.98 1.00 1.01 1.05 1.10 1.13 1.09 1.15 1.20 1.20 1.20 1.23 1.22 1.20 1.15 1.13 1.15 1.15 1.18 1.18 1.22 1.24 1.18 1.16 1.16 1.13 1.12 1.07 0.98 0.93 0.88 0.86 0.87 0.91 0.96 0.98 0.96 0.89 0.83 0.82 0.83 0.83
0.22 0.20 0.25 0.24 0.22 0.26 0.30 0.30 0.30 0.30 0.29 0.27 0.22 0.25 0.30 0.33 0.29 0.22 0.17 0.19 0.16 0.14 0.16 0.21 0.19 0.24 0.25 0.24 0.47 0.54 0.53 0.56 0.60 0.63 0.66 0.70 0.74 0.73 0.76 0.80 0.85 0.89 0.93 0.97 1.00 1.03 1.03 1.04 1.07 1.15 1.17 1.17 1.22 1.23 1.22 1.24 1.25 1.21 1.18 1.14 1.14 1.14 1.10 1.13 1.20 1.22 1.18 1.16 1.16 1.12 1.09 1.08 1.02 0.96 0.92 0.91 0.89 0.92 0.95 0.98 0.99 0.93 0.85 0.82 0.82 0.86
0.29 0.20 0.24 0.26 0.25 0.28 0.31 0.30 0.28 0.30 0.32 0.26 0.26 0.33 0.24 0.22 0.19 0.23 0.19 0.14 0.14 0.13 0.15 0.21 0.23 0.24 0.27 0.29 0.40 0.43 0.49 0.52 0.57 0.63 0.66 0.67 0.72 0.75 0.79 0.85 0.90 0.93 0.95 0.99 1.01 1.01 1.02 1.04 1.07 1.11 1.16 1.20 1.20 1.23 1.22 1.27 1.24 1.21 1.19 1.19 1.19 1.16 1.19 1.22 1.21 1.19 1.18 1.20 1.18 1.13 1.09 1.08 1.03 0.99 0.93 0.89 0.89 0.92 0.92 0.93 0.94 0.90 0.88 0.85 0.84 0.88
0.32 0.22 0.23 0.28 0.26 0.28 0.29 0.27 0.22 0.25 0.30 0.31 0.31 0.28 0.32 0.26 0.23 0.20 0.19 0.20 0.17 0.15 0.14 0.16 0.22 0.20 0.29 0.35 0.45 0.48 0.52 0.55 0.58 0.61 0.64 0.68 0.72 0.77 0.80 0.83 0.88 0.91 0.94 0.97 0.99 1.00 1.02 1.04 1.07 1.12 1.16 1.19 1.17 1.20 1.25 1.24 1.21 1.15 1.16 1.19 1.22 1.22 1.23 1.26 1.20 1.17 1.14 1.19 1.19 1.15 1.14 1.12 1.07 1.01 0.93 0.87 0.86 0.89 0.90 0.91 0.92 0.89 0.86 0.84 0.83 0.85
0.29 0.30 0.20 0.26 0.30 0.28 0.23 0.27 0.25 0.25 0.25 0.25 0.25 0.25 0.27 0.27 0.31 0.27 0.26 0.21 0.18 0.16 0.15 0.16 0.15 0.21 0.35 0.48 0.49 0.53 0.58 0.60 0.61 0.62 0.66 0.69 0.73 0.78 0.81 0.83 0.85 0.89 0.91 0.95 0.98 1.01 1.04 1.06 1.08 1.12 1.19 1.21 1.23 1.21 1.25 1.20 1.13 1.12 1.16 1.17 1.19 1.11 1.17 1.21 1.20 1.17 1.15 1.18 1.16 1.13 1.11 1.10 1.05 0.98 0.93 0.88 0.88 0.88 0.88 0.90 0.91 0.90 0.88 0.86 0.83 0.81
0.28 0.28 0.22 0.26 0.24 0.24 0.26 0.33 0.34 0.32 0.30 0.27 0.26 0.24 0.25 0.23 0.22 0.19 0.18 0.26 0.24 0.19 0.17 0.16 0.14 0.23 0.37 0.53 0.55 0.56 0.60 0.63 0.68 0.68 0.68 0.71 0.74 0.77 0.81 0.84 0.86 0.91 0.94 0.95 0.97 1.00 1.02 1.03 1.06 1.10 1.15 1.20 1.20 1.20 1.18 1.19 1.16 1.15 1.15 1.15 1.17 1.14 1.15 1.18 1.16 1.14 1.14 1.15 1.15 1.11 1.12 1.12 1.07 1.01 0.95 0.89 0.88 0.88 0.88 0.88 0.88 0.89 0.87 0.82 0.82 0.80
0.34 0.32 0.27 0.24 0.25 0.26 0.30 0.37 0.40 0.39 0.37 0.34 0.30 0.27 0.29 0.27 0.26 0.21 0.17 0.20 0.24 0.23 0.25 0.23 0.19 0.23 0.47 0.55 0.55 0.59 0.64 0.68 0.71 0.72 0.70 0.72 0.75 0.78 0.83 0.86 0.88 0.90 0.90 0.94 0.96 0.98 0.99 1.02 1.03 1.06 1.10 1.13 1.17 1.20 1.20 1.20 1.18 1.22 1.20 1.18 1.18 1.14 1.15 1.19 1.19 1.17 1.15 1.14 1.13 1.12 1.12 1.13 1.10 1.04 0.98 0.93 0.89 0.88 0.88 0.87 0.88 0.88 0.82 0.80 0.79 0.77
0.40 0.30 0.26 0.27 0.32 0.34 0.36 0.39 0.40 0.40 0.38 0.33 0.34 0.35 0.31 0.26 0.27 0.25 0.22 0.24 0.22 0.24 0.21 0.22 0.18 0.26 0.49 0.58 0.58 0.60 0.65 0.68 0.71 0.73 0.71 0.73 0.75 0.78 0.80 0.83 0.85 0.86 0.88 0.90 0.92 0.92 0.91 0.94 1.07 1.08 1.08 1.11 1.14 1.16 1.21 1.22 1.17 1.20 1.24 1.24 1.23 1.19 1.19 1.19 1.18 1.17 1.15 1.14 1.14 1.14 1.13 1.12 1.12 1.06 1.00 0.95 0.92 0.89 0.87 0.86 0.87 0.86 0.81 0.78 0.76 0.70
0.31 0.35 0.30 0.26 0.25 0.27 0.30 0.33 0.33 0.38 0.37 0.33 0.32 0.35 0.35 0.33 0.32 0.30 0.28 0.29 0.21 0.23 0.24 0.21 0.18 0.25 0.45 0.57 0.59 0.59 0.60 0.62 0.65 0.71 0.74 0.72 0.74 0.77 0.80 0.81 0.85 0.88 0.88 0.88 0.87 0.88 0.91 0.96 1.04 1.07 1.09 1.12 1.14 1.15 1.19 1.18 1.16 1.20 1.25 1.25 1.24 1.22 1.23 1.21 1.19 1.17 1.16 1.17 1.15 1.14 1.13 1.13 1.13 1.07 1.03 1.01 0.96 0.92 0.87 0.85 0.87 0.85 0.79 0.76 0.73 0.71
0.39 0.37 0.31 0.23 0.21 0.19 0.18 0.19 0.21 0.24 0.29 0.33 0.35 0.35 0.36 0.33 0.30 0.27 0.22 0.23 0.19 0.24 0.25 0.22 0.23 0.36 0.50 0.55 0.54 0.56 0.57 0.60 0.65 0.69 0.73 0.74 0.76 0.78 0.81 0.82 0.83 0.86 0.87 0.87 0.88 0.90 0.92 0.96 1.03 1.03 1.04 1.09 1.13 1.18 1.19 1.19 1.21 1.25 1.21 1.24 1.28 1.25 1.25 1.23 1.23 1.19 1.17 1.18 1.18 1.18 1.15 1.15 1.15 1.11 1.08 1.08 1.04 0.95 0.87 0.87 0.88 0.84 0.80 0.75 0.73 0.73
0.43 0.44 0.39 0.33 0.28 0.25 0.27 0.29 0.35 0.36 0.33 0.28 0.31 0.33 0.34 0.37 0.37 0.32 0.28 0.24 0.20 0.24 0.23 0.26 0.29 0.34 0.40 0.46 0.48 0.53 0.57 0.57 0.59 0.64 0.67 0.71 0.76 0.79 0.81 0.82 0.83 0.85 0.88 0.90 0.92 0.94 0.96 0.96 0.97 1.01 1.05 1.07 1.09 1.13 1.17 1.18 1.18 1.20 1.22 1.22 1.27 1.27 1.25 1.24 1.25 1.22 1.19 1.18 1.17 1.19 1.19 1.17 1.15 1.16 1.15 1.16 1.14 1.03 0.92 0.90 0.91 0.87 0.81 0.79 0.77 0.73
0.44 0.40 0.41 0.40 0.38 0.37 0.39 0.37 0.40 0.39 0.32 0.34 0.32 0.33 0.36 0.35 0.35 0.31 0.26 0.24 0.28 0.25 0.21 0.30 0.37 0.32 0.39 0.43 0.49 0.52 0.56 0.58 0.61 0.63 0.67 0.71 0.75 0.76 0.77 0.80 0.82 0.84 0.88 0.91 0.92 0.94 0.94 0.96 0.97 0.99 1.00 1.01 1.06 1.12 1.13 1.18 1.16 1.17 1.17 1.18 1.23 1.27 1.27 1.27 1.23 1.21 1.19 1.19 1.18 1.16 1.19 1.18 1.16 1.18 1.17 1.16 1.16 1.11 0.98 0.95 0.94 0.91 0.85 0.82 0.81 0.78
0.41 0.36 0.43 0.42 0.40 0.42 0.43 0.42 0.42 0.40 0.38 0.37 0.37 0.36 0.34 0.36 0.35 0.30 0.31 0.32 0.31 0.24 0.22 0.31 0.38 0.35 0.40 0.45 0.51 0.55 0.58 0.60 0.61 0.65 0.68 0.72 0.73 0.74 0.75 0.76 0.78 0.79 0.83 0.85 0.87 0.90 0.92 0.93 0.95 0.98 1.00 1.04 1.08 1.10 1.10 1.11 1.17 1.20 1.19 1.19 1.20 1.24 1.24 1.24 1.22 1.19 1.18 1.17 1.17 1.19 1.19 1.24 1.21 1.22 1.19 1.16 1.17 1.15 1.08 1.00 0.97 0.92 0.86 0.84 0.86 0.84
0.43 0.39 0.42 0.43 0.41 0.42 0.43 0.43 0.44 0.40 0.39 0.38 0.37 0.37 0.38 0.37 0.37 0.37 0.36 0.38 0.34 0.31 0.34 0.37 0.39 0.36 0.42 0.47 0.53 0.58 0.63 0.64 0.65 0.69 0.70 0.69 0.69 0.72 0.73 0.75 0.76 0.78 0.80 0.82 0.85 0.87 0.90 0.94 0.95 0.96 0.99 0.98 1.00 1.03 1.05 1.05 1.06 1.10 1.13 1.16 1.18 1.18 1.20 1.22 1.19 1.18 1.17 1.15 1.16 1.20 1.21 1.23 1.22 1.21 1.21 1.19 1.17 1.17 1.14 1.10 1.03 0.96 0.89 0.85 0.90 0.93
0.41 0.38 0.44 0.43 0.39 0.40 0.43 0.45 0.45 0.43 0.41 0.37 0.39 0.40 0.40 0.40 0.40 0.40 0.40 0.40 0.41 0.39 0.41 0.40 0.38 0.37 0.48 0.54 0.56 0.62 0.64 0.67 0.67 0.65 0.66 0.68 0.70 0.71 0.72 0.73 0.74 0.78 0.81 0.85 0.87 0.91 0.91 0.91 0.95 0.97 0.96 0.95 0.96 0.97 0.99 1.02 1.04 1.08 1.10 1.13 1.15 1.17 1.22 1.21 1.16 1.14 1.13 1.12 1.15 1.18 1.19 1.20 1.20 1.18 1.18 1.15 1.15 1.18 1.17 1.14 0.98 0.92 0.89 0.89 0.96 0.98
0.44 0.40 0.45 0.41 0.34 0.36 0.43 0.43 0.43 0.44 0.43 0.40 0.39 0.40 0.39 0.38 0.35 0.39 0.37 0.42 0.38 0.36 0.39 0.40 0.36 0.37 0.48 0.56 0.58 0.60 0.61 0.61 0.62 0.63 0.65 0.66 0.69 0.70 0.70 0.71 0.73 0.77 0.81 0.83 0.86 0.88 0.89 0.88 0.90 0.91 0.92 0.93 0.95 0.95 0.96 0.96 0.98 1.00 1.00 1.04 1.06 1.09 1.14 1.15 1.13 1.11 1.11 1.11 1.11 1.13 1.14 1.15 1.15 1.14 1.15 1.17 1.16 1.15 1.17 1.08 1.02 0.96 0.87 0.85 0.90 0.96
0.41 0.38 0.34 0.35 0.30 0.34 0.44 0.45 0.43 0.41 0.40 0.35 0.36 0.42 0.43 0.42 0.43 0.44 0.45 0.48 0.45 0.46 0.38 0.35 0.37 0.47 0.52 0.57 0.55 0.56 0.58 0.60 0.61 0.63 0.64 0.66 0.69 0.71 0.73 0.73 0.74 0.75 0.77 0.80 0.83 0.85 0.85 0.87 0.89 0.91 0.92 0.92 0.92 0.93 0.91 0.92 0.92 0.93 0.96 0.97 0.98 1.02 1.03 1.03 1.03 1.04 1.05 1.08 1.08 1.07 1.09 1.14 1.14 1.14 1.14 1.15 1.13 1.14 1.15 1.11 1.03 0.94 0.90 0.88 0.90 0.94
0.41 0.38 0.34 0.38 0.29 0.33 0.41 0.44 0.45 0.36 0.27 0.30 0.48 0.52 0.51 0.45 0.45 0.41 0.40 0.44 0.49 0.50 0.45 0.50 0.50 0.54 0.55 0.56 0.56 0.56 0.57 0.59 0.63 0.65 0.70 0.69 0.68 0.70 0.72 0.74 0.74 0.76 0.77 0.79 0.82 0.84 0.86 0.87 0.88 0.90 0.90 0.91 0.91 0.92 0.92 0.93 0.88 0.90 0.94 0.95 0.97 0.95 0.95 0.96 0.95 0.96 0.97 1.01 1.04 1.07 1.09 1.11 1.13 1.14 1.17 1.18 1.15 1.12 1.09 1.06 1.02 1.01 0.99 0.93 0.95 0.97
0.39 0.37 0.34 0.38 0.31 0.29 0.36 0.38 0.34 0.27 0.29 0.46 0.55 0.57 0.58 0.55 0.53 0.48 0.47 0.48 0.50 0.53 0.52 0.50 0.52 0.54 0.56 0.58 0.60 0.62 0.63 0.66 0.68 0.68 0.69 0.72 0.72 0.71 0.71 0.72 0.72 0.75 0.76 0.78 0.79 0.82 0.84 0.85 0.86 0.88 0.88 0.88 0.89 0.90 0.90 0.89 0.90 0.90 0.90 0.92 0.91 0.92 0.92 0.92 0.93 0.93 0.93 0.95 0.98 1.02 1.04 1.05 1.08 1.09 1.12 1.14 1.13 1.12 1.08 1.07 1.05 1.03 0.99 0.95 0.96 0.98
0.36 0.33 0.33 0.34 0.35 0.35 0.31 0.30 0.21 0.24 0.43 0.51 0.54 0.56 0.60 0.59 0.57 0.53 0.47 0.51 0.53 0.53 0.54 0.51 0.53 0.56 0.57 0.58 0.61 0.65 0.66 0.67 0.69 0.69 0.70 0.72 0.74 0.73 0.72 0.71 0.73 0.74 0.74 0.76 0.77 0.79 0.81 0.82 0.84 0.85 0.86 0.89 0.89 0.89 0.90 0.87 0.88 0.89 0.86 0.89 0.88 0.88 0.89 0.89 0.89 0.90 0.91 0.92 0.93 0.97 0.98 1.00 1.01 1.03 1.04 1.05 1.06 1.10 1.11 1.08 1.05 1.03 1.03 1.00 1.01 1.03
0.40 0.36 0.35 0.30 0.37 0.25 0.28 0.28 0.26 0.38 0.38 0.42 0.42 0.46 0.51 0.48 0.50 0.47 0.39 0.47 0.55 0.58 0.57 0.55 0.56 0.57 0.58 0.60 0.62 0.64 0.66 0.66 0.62 0.63 0.70 0.72 0.74 0.75 0.74 0.74 0.75 0.76 0.77 0.77 0.78 0.78 0.81 0.82 0.82 0.83 0.84 0.85 0.86 0.85 0.87 0.90 0.91 0.88 0.88 0.87 0.86 0.86 0.85 0.85 0.84 0.84 0.86 0.86 0.89 0.91 0.94 0.95 0.97 0.98 0.99 0.98 0.98 1.01 1.02 0.99 0.99 1.02 1.04 1.01 1.00 0.98
0.43 0.34 0.36 0.29 0.31 0.34 0.27 0.25 0.26 0.26 0.22 0.31 0.43 0.51 0.56 0.57 0.58 0.58 0.50 0.45 0.57 0.60 0.61 0.59 0.57 0.59 0.59 0.61 0.62 0.63 0.64 0.58 0.52 0.55 0.64 0.69 0.73 0.75 0.77 0.77 0.78 0.78 0.78 0.77 0.79 0.80 0.81 0.82 0.83 0.83 0.82 0.82 0.82 0.82 0.83 0.85 0.87 0.87 0.85 0.83 0.82 0.82 0.82 0.82 0.81 0.81 0.82 0.82 0.83 0.86 0.89 0.91 0.90 0.89 0.90 0.91 0.90 0.91 0.93 0.95 0.97 0.98 1.01 0.98 0.96 0.95
0.46 0.46 0.40 0.33 0.32 0.31 0.28 0.24 0.23 0.20 0.25 0.38 0.42 0.49 0.55 0.58 0.57 0.58 0.46 0.38 0.55 0.59 0.61 0.61 0.59 0.60 0.61 0.60 0.61 0.62 0.56 0.48 0.48 0.55 0.65 0.69 0.71 0.74 0.74 0.76 0.77 0.78 0.78 0.79 0.80 0.80 0.80 0.80 0.81 0.82 0.82 0.81 0.79 0.80 0.80 0.80 0.81 0.81 0.80 0.80 0.80 0.80 0.78 0.77 0.77 0.78 0.79 0.80 0.82 0.83 0.85 0.87 0.88 0.88 0.87 0.87 0.88 0.89 0.89 0.92 0.94 0.96 0.98 0.99 0.99 0.98
0.43 0.38 0.38 0.31 0.29 0.29 0.28 0.24 0.23 0.28 0.28 0.37 0.45 0.50 0.56 0.59 0.58 0.49 0.29 0.32 0.53 0.59 0.61 0.61 0.59 0.60 0.62 0.63 0.64 0.60 0.55 0.49 0.50 0.57 0.67 0.69 0.71 0.72 0.73 0.73 0.74 0.75 0.76 0.77 0.79 0.80 0.79 0.79 0.78 0.77 0.76 0.76 0.78 0.81 0.81 0.80 0.79 0.77 0.76 0.76 0.77 0.77 0.76 0.75 0.75 0.76 0.76 0.78 0.80 0.82 0.83 0.84 0.84 0.85 0.85 0.84 0.86 0.86 0.86 0.88 0.92 0.95 0.96 0.96 0.97 0.98
0.35 0.34 0.33 0.27 0.27 0.29 0.27 0.27 0.29 0.31 0.39 0.44 0.46 0.52 0.57 0.59 0.51 0.33 0.26 0.40 0.57 0.59 0.61 0.63 0.62 0.63 0.63 0.62 0.62 0.55 0.59 0.62 0.63 0.67 0.68 0.69 0.68 0.68 0.70 0.71 0.70 0.70 0.70 0.71 0.72 0.74 0.75 0.77 0.77 0.76 0.75 0.75 0.76 0.77 0.78 0.79 0.78 0.77 0.77 0.76 0.75 0.75 0.75 0.76 0.76 0.76 0.75 0.75 0.75 0.77 0.79 0.80 0.81 0.81 0.82 0.82 0.82 0.84 0.86 0.87 0.89 0.92 0.93 0.92 0.93 0.93
0.31 0.32 0.32 0.30 0.27 0.26 0.27 0.26 0.26 0.32 0.41 0.47 0.50 0.53 0.58 0.48 0.31 0.30 0.43 0.61 0.59 0.58 0.62 0.63 0.61 0.63 0.62 0.59 0.59 0.60 0.63 0.66 0.67 0.67 0.65 0.64 0.64 0.64 0.66 0.66 0.65 0.64 0.65 0.66 0.65 0.66 0.69 0.70 0.71 0.71 0.71 0.72 0.72 0.72 0.72 0.72 0.73 0.73 0.74 0.75 0.74 0.74 0.77 0.76 0.75 0.75 0.75 0.75 0.75 0.75 0.74 0.73 0.74 0.74 0.75 0.75 0.76 0.78 0.78 0.79 0.81 0.82 0.84 0.87 0.88 0.87
0.30 0.28 0.27 0.27 0.30 0.30 0.28 0.26 0.25 0.21 0.39 0.49 0.51 0.49 0.54 0.39 0.41 0.53 0.58 0.61 0.63 0.60 0.60 0.60 0.60 0.58 0.58 0.56 0.60 0.61 0.62 0.62 0.62 0.61 0.61 0.60 0.59 0.59 0.60 0.60 0.60 0.58 0.58 0.58 0.59 0.60 0.60 0.60 0.63 0.65 0.67 0.68 0.68 0.68 0.67 0.65 0.65 0.66 0.67 0.67 0.69 0.72 0.74 0.76 0.75 0.76 0.76 0.75 0.75 0.75 0.74 0.74 0.73 0.73 0.74 0.72 0.72 0.72 0.72 0.73 0.73 0.75 0.77 0.78 0.80 0.81
0.39 0.28 0.29 0.30 0.33 0.25 0.24 0.22 0.24 0.34 0.44 0.52 0.48 0.40 0.49 0.51 0.57 0.59 0.59 0.55 0.60 0.60 0.58 0.58 0.57 0.58 0.58 0.57 0.57 0.57 0.57 0.57 0.56 0.56 0.55 0.54 0.54 0.55 0.55 0.55 0.55 0.55 0.56 0.57 0.57 0.58 0.57 0.57 0.58 0.59 0.61 0.62 0.62 0.62 0.62 0.61 0.60 0.60 0.60 0.63 0.67 0.68 0.68 0.68 0.70 0.70 0.71 0.72 0.73 0.73 0.73 0.73 0.73 0.73 0.73 0.72 0.72 0.71 0.70 0.70 0.72 0.73 0.74 0.75 0.74 0.73
0.40 0.33 0.35 0.28 0.37 0.30 0.29 0.33 0.40 0.45 0.47 0.52 0.52 0.51 0.55 0.58 0.60 0.62 0.62 0.60 0.57 0.57 0.59 0.55 0.55 0.56 0.57 0.55 0.54 0.53 0.52 0.53 0.53 0.53 0.51 0.51 0.51 0.51 0.51 0.51 0.52 0.52 0.53 0.53 0.54 0.55 0.55 0.54 0.55 0.55 0.55 0.56 0.55 0.55 0.54 0.54 0.53 0.53 0.53 0.57 0.60 0.60 0.62 0.63 0.63 0.63 0.63 0.64 0.65 0.66 0.67 0.68 0.69 0.70 0.70 0.70 0.69 0.67 0.67 0.66 0.67 0.66 0.68 0.69 0.69 0.70
0.44 0.44 0.45 0.40 0.37 0.45 0.46 0.45 0.47 0.47 0.47 0.49 0.53 0.55 0.55 0.57 0.60 0.61 0.60 0.58 0.58 0.59 0.58 0.55 0.55 0.53 0.52 0.52 0.50 0.50 0.49 0.50 0.49 0.49 0.50 0.50 0.50 0.51 0.51 0.51 0.51 0.52 0.52 0.52 0.53 0.53 0.53 0.53 0.52 0.51 0.50 0.51 0.52 0.51 0.51 0.51 0.50 0.48 0.49 0.51 0.52 0.53 0.53 0.53 0.54 0.55 0.55 0.56 0.57 0.58 0.59 0.59 0.60 0.62 0.64 0.64 0.65 0.65 0.65 0.64 0.64 0.63 0.63 0.63 0.63 0.64
0.41 0.44 0.40 0.35 0.40 0.35 0.29 0.43 0.43 0.44 0.47 0.48 0.50 0.54 0.56 0.57 0.58 0.60 0.59 0.58 0.58 0.59 0.58 0.57 0.54 0.52 0.51 0.50 0.49 0.48 0.48 0.48 0.47 0.48 0.48 0.49 0.49 0.50 0.50 0.50 0.51 0.52 0.51 0.50 0.51 0.52 0.50 0.49 0.48 0.48 0.47 0.47 0.49 0.50 0.50 0.49 0.49 0.49 0.49 0.49 0.49 0.49 0.48 0.47 0.47 0.46 0.47 0.48 0.49 0.51 0.52 0.52 0.53 0.54 0.56 0.56 0.56 0.57 0.58 0.58 0.58 0.57 0.56 0.56 0.56 0.57
0.31 0.44 0.37 0.37 0.37 0.33 0.34 0.42 0.45 0.49 0.50 0.51 0.51 0.50 0.51 0.54 0.57 0.60 0.60 0.59 0.59 0.59 0.57 0.54 0.53 0.51 0.51 0.49 0.49 0.48 0.47 0.48 0.47 0.47 0.48 0.48 0.49 0.50 0.50 0.49 0.49 0.49 0.50 0.50 0.50 0.49 0.48 0.47 0.46 0.46 0.45 0.45 0.46 0.46 0.46 0.46 0.45 0.46 0.46 0.46 0.46 0.46 0.45 0.43 0.42 0.41 0.41 0.42 0.43 0.43 0.45 0.45 0.45 0.45 0.45 0.46 0.47 0.46 0.47 0.48 0.48 0.47 0.46 0.46 0.46 0.46
0.35 0.39 0.31 0.37 0.33 0.38 0.43 0.45 0.46 0.47 0.48 0.49 0.52 0.54 0.55 0.56 0.57 0.58 0.59 0.58 0.57 0.55 0.54 0.53 0.53 0.52 0.52 0.51 0.50 0.49 0.47 0.47 0.48 0.48 0.47 0.48 0.48 0.48 0.49 0.49 0.48 0.48 0.48 0.47 0.47 0.46 0.45 0.45 0.45 0.45 0.44 0.44 0.45 0.45 0.45 0.45 0.44 0.44 0.43 0.43 0.42 0.41 0.40 0.39 0.39 0.39 0.39 0.39 0.40 0.40 0.40 0.40 0.39 0.38 0.37 0.37 0.37 0.38 0.38 0.37 0.38 0.38 0.38 0.41 0.42 0.41
0.33 0.28 0.35 0.34 0.29 0.30 0.33 0.38 0.44 0.35 0.35 0.43 0.48 0.51 0.52 0.55 0.56 0.56 0.57 0.57 0.56 0.54 0.54 0.53 0.55 0.56 0.56 0.55 0.53 0.51 0.48 0.48 0.48 0.48 0.46 0.47 0.47 0.47 0.47 0.47 0.47 0.46 0.46 0.46 0.46 0.44 0.44 0.45 0.45 0.44 0.44 0.44 0.45 0.45 0.44 0.43 0.43 0.43 0.42 0.41 0.40 0.39 0.37 0.36 0.35 0.35 0.36 0.37 0.37 0.36 0.35 0.34 0.34 0.33 0.33 0.33 0.32 0.32 0.32 0.34 0.34 0.34 0.32 0.32 0.35 0.35
0.28 0.32 0.33 0.29 0.28 0.28 0.38 0.41 0.42 0.42 0.41 0.44 0.46 0.48 0.49 0.51 0.50 0.49 0.49 0.49 0.50 0.50 0.51 0.51 0.50 0.50 0.51 0.51 0.51 0.48 0.46 0.46 0.46 0.46 0.46 0.45 0.46 0.47 0.47 0.46 0.45 0.45 0.45 0.45 0.43 0.42 0.42 0.44 0.45 0.45 0.44 0.44 0.44 0.42 0.41 0.40 0.40 0.40 0.39 0.39 0.38 0.36 0.35 0.34 0.33 0.34 0.35 0.34 0.33 0.33 0.32 0.31 0.31 0.31 0.30 0.30 0.29 0.29 0.28 0.28 0.29 0.31 0.31 0.31 0.31 0.31
Wind_Speed
17 17 18 17 16 16 16 16 15 14 13 13 14 14 14 15 14 13 15 15 14 15 17 16 17 18 19 19 17 17 19 21 22 22 22 22 22 21 21 19 18 19 18 16 14 14 14 13 11 10 10 9 9 8 9 9 11 13 13 13 12 12 11 11 11 11 11 11 11 10 10 10 10 11 11 11 11 11 11 11 11 11 11 11 11 11
17 18 18 17 16 16 16 15 14 14 14 15 15 16 15 15 15 15 16 15 14 16 16 15 17 19 19 19 18 18 20 22 23 24 23 23 23 22 22 21 20 20 19 17 16 16 15 14 13 12 11 10 10 9 9 10 11 12 13 13 12 11 11 11 11 11 11 11 11 11 11 11 11 11 11 11 11 11 11 11 11 10 10 11 11 11
17 18 17 16 17 15 14 14 15 14 15 15 15 16 16 15 14 15 15 14 14 15 16 15 17 19 18 18 19 19 19 21 23 24 24 23 23 22 22 21 21 22 20 18 18 17 16 15 14 13 11 10 10 10 10 10 11 12 12 12 12 12 11 11 11 11 11 11 11 11 11 11 11 12 12 11 11 11 11 11 11 10 10 10 10 10
17 17 17 17 17 15 14 15 15 15 15 15 15 16 16 14 13 14 13 12 13 15 15 16 17 18 17 17 18 18 19 20 22 24 25 24 23 22 22 21 21 22 21 19 18 18 17 16 14 13 12 11 10 10 10 10 11 11 12 13 13 12 12 12 12 12 12 11 11 11 11 11 12 12 12 12 11 11 11 11 11 10 10 10 10 10
17 15 15 16 17 16 15 15 15 16 16 16 16 17 16 15 15 16 14 13 15 15 14 16 17 17 16 16 17 17 18 19 20 22 24 25 24 23 22 22 21 21 21 19 18 18 18 17 15 14 12 11 11 11 10 11 11 11 12 13 13 12 12 12 13 13 12 12 11 11 11 11 11 12 12 12 12 11 11 11 11 10 10 9 9 9
18 16 14 14 16 17 16 16 16 16 16 15 16 17 17 17 17 16 14 13 14 13 12 13 14 14 14 15 16 16 17 18 18 20 23 24 24 23 22 22 22 21 20 19 18 18 18 17 16 14 13 12 12 11 11 11 11 12 13 13 13 13 13 13 13 13 13 12 12 12 12 11 12 12 12 12 12 12 11 11 10 10 10 9 9 9
17 16 16 15 15 16 16 16 16 15 15 14 14 15 17 17 15 14 13 13 14 12 11 12 13 13 13 15 16 15 16 17 18 19 21 22 23 23 22 22 21 21 20 19 19 18 18 17 16 15 13 13 12 12 12 11 12 13 13 13 13 13 14 14 14 13 13 13 13 13 12 12 12 12 12 12 12 12 12 11 11 10 10 10 9 9
15 15 17 16 15 15 16 16 14 14 14 13 12 12 13 14 14 13 13 14 13 13 13 13 13 14 14 14 14 14 16 16 16 17 19 20 20 21 21 21 21 20 20 19 18 18 18 17 17 15 13 13 13 12 12 12 12 13 13 13 13 14 14 14 14 14 14 14 14 13 12 12 13 12 12 12 12 12 12 12 11 10 10 10 9 9
13 15 17 16 16 16 16 14 13 14 14 12 11 11 11 12 12 12 12 13 13 13 14 13 12 13 13 12 11 12 14 14 13 13 16 17 18 20 20 20 20 19 19 19 18 17 18 17 17 15 14 13 13 13 13 12 13 14 14 14 14 14 14 14 14 14 14 14 14 13 13 13 13 12 12 12 12 12 12 12 11 11 10 10 10 9
13 15 15 15 15 16 15 13 13 14 13 11 10 9 9 9 10 11 12 12 12 13 13 12 12 13 12 11 10 10 11 11 10 11 13 15 17 18 18 18 18 19 18 18 17 17 18 17 16 15 14 14 14 13 13 13 13 14 14 14 14 14 14 14 15 15 15 15 15 14 13 13 13 12 12 12 12 12 12 12 11 11 10 10 9 9
13 13 13 13 14 14 14 12 13 14 11 9 10 9 8 9 9 10 11 11 12 13 11 11 13 13 11 10 9 9 8 9 10 11 12 14 16 17 17 17 18 18 17 17 17 17 18 18 17 15 15 14 13 13 13 14 14 14 14 15 15 15 15 15 15 16 16 16 15 14 14 14 14 13 13 13 13 13 12 12 11 10 10 9 9 9
14 14 13 14 13 12 12 12 12 12 11 10 10 10 9 9 9 9 10 10 12 12 9 10 13 13 12 9 8 8 7 7 10 11 12 13 15 16 15 17 17 17 17 16 16 16 18 18 16 15 15 14 13 14 14 14 14 14 14 15 15 15 16 16 16 16 16 16 15 14 14 14 14 14 14 14 14 13 13 12 11 11 10 9 9 8
15 16 14 14 14 14 14 13 12 12 12 12 11 11 11 10 9 10 10 10 12 11 9 10 11 12 13 10 8 8 7 7 8 11 12 13 14 15 14 15 15 15 15 15 14 15 17 17 14 14 14 13 13 14 14 14 14 14 14 15 16 16 17 17 17 17 17 16 15 15 15 15 15 14 14 14 14 14 13 13 12 11 10 10 9 8
15 15 14 14 14 15 16 15 13 12 13 13 13 12 12 10 9 10 10 10 11 11 10 11 11 11 11 10 8 8 7 7 7 9 12 13 13 14 13 13 14 14 15 14 14 15 16 17 15 14 14 13 14 15 15 14 14 14 14 15 16 17 18 18 17 17 17 16 16 15 15 15 15 15 14 14 14 14 14 13 13 11 10 9 9 8
14 13 14 15 13 14 17 16 13 11 12 13 12 12 12 11 10 10 10 10 10 9 8 10 11 11 11 9 8 8 7 6 6 8 11 12 12 12 12 12 12 13 14 14 14 14 15 16 16 15 14 13 14 14 15 14 14 14 14 15 15 16 17 17 17 17 16 16 16 15 15 15 15 15 15 14 14 14 14 13 12 11 10 9 9 8
13 13 13 13 12 13 15 14 12 11 12 12 12 12 12 12 10 9 9 9 9 8 8 10 11 11 11 10 8 9 8 6 6 7 9 11 11 12 11 11 11 12 13 13 14 14 14 15 15 15 14 13 13 14 15 14 14 14 14 14 14 15 16 15 16 16 16 16 16 15 16 16 15 15 15 14 14 14 13 13 12 11 10 9 9 9
12 12 11 12 13 14 13 13 13 13 12 12 13 13 11 11 10 9 9 8 8 10 9 9 10 11 11 11 9 9 8 7 7 6 8 10 11 11 10 10 11 11 12 13 13 14 14 15 16 15 14 14 14 14 15 15 15 14 14 14 14 15 16 16 15 16 15 16 16 16 16 16 15 15 15 15 14 14 13 13 12 11 10 10 9 9
12 12 11 11 13 14 12 12 12 12 12 12 13 13 11 10 10 10 9 8 9 10 9 9 10 11 12 11 9 9 8 8 8 7 8 9 9 9 9 9 10 10 10 12 14 14 14 15 16 16 15 14 14 14 15 15 15 15 14 14 14 15 17 17 16 15 16 16 16 16 16 16 16 15 15 14 14 14 14 13 12 11 11 10 10 10
12 12 11 12 13 12 12 13 12 12 13 13 12 11 11 11 11 11 10 9 9 9 9 8 9 11 13 11 9 9 9 9 9 8 9 9 9 8 8 9 9 9 10 12 13 13 14 15 16 16 15 15 15 15 16 16 16 15 14 14 14 14 16 17 16 15 16 16 16 16 16 16 16 15 15 14 14 14 14 14 13 12 11 11 10 10
13 12 11 11 12 12 12 14 14 13 13 13 13 12 12 11 11 11 11 10 10 9 8 8 8 10 12 12 10 9 9 10 10 9 10 10 9 8 9 9 10 10 10 12 13 13 13 14 15 15 16 16 15 15 16 17 16 16 15 14 14 15 16 17 16 15 16 16 16 16 16 16 16 15 15 14 14 14 14 13 13 13 12 11 11 10
14 14 12 11 12 13 13 13 14 14 14 14 15 15 13 12 11 10 10 10 10 9 8 9 9 8 9 11 11 10 9 10 10 10 9 9 9 9 10 11 11 11 12 12 13 13 13 13 14 14 15 16 16 15 16 17 17 17 16 16 16 16 17 17 16 16 16 16 16 16 16 16 16 15 15 14 14 14 14 14 14 13 13 12 11 11
15 15 14 13 13 14 13 12 13 13 13 14 15 15 15 14 13 12 11 10 10 10 9 9 9 7 8 10 11 10 10 11 11 10 9 9 9 10 10 11 11 12 12 12 13 13 13 13 13 13 14 16 17 17 17 18 18 17 17 17 17 17 18 18 17 17 17 17 16 16 16 16 16 16 15 15 15 15 15 15 15 14 14 13 12 11
15 14 15 15 15 14 13 13 13 13 13 13 14 14 14 14 14 14 13 11 11 10 9 9 9 8 8 9 10 10 11 10 10 10 9 10 10 10 9 9 10 10 11 11 12 13 13 13 13 14 14 15 17 18 18 18 19 18 17 18 17 18 19 19 18 18 17 17 17 16 16 16 16 16 16 16 15 15 15 15 15 15 14 14 13 12
15 14 15 15 14 14 13 13 13 13 14 14 13 13 13 14 14 14 13 11 12 11 10 10 10 9 9 9 9 10 9 9 8 8 8 9 9 9 8 8 9 9 9 10 11 12 11 12 13 14 14 15 15 17 18 18 18 18 17 17 17 17 19 19 19 19 18 18 18 17 17 17 17 17 17 17 16 16 16 16 16 16 15 15 14 13
15 14 14 14 13 13 14 14 14 14 14 14 13 13 14 13 14 14 12 12 12 12 11 11 10 9 9 9 9 9 8 7 7 7 7 7 8 8 8 8 8 8 8 8 9 9 8 8 10 12 12 13 14 15 16 17 17 17 17 17 17 17 18 19 19 19 19 19 19 18 18 17 17 17 17 17 17 16 16 16 16 16 16 15 15 14
15 14 14 14 15 15 14 14 14 14 14 14 14 13 12 12 13 14 13 13 13 13 12 12 10 9 9 9 8 8 8 7 7 6 6 7 7 7 7 7 6 6 7 6 6 7 6 5 7 8 9 10 12 13 14 14 14 15 16 16 17 18 18 18 19 19 19 19 19 19 19 18 18 18 18 17 17 16 16 16 16 16 16 16 15 15
14 14 14 14 15 15 14 13 14 14 14 14 14 13 12 12 13 13 13 13 13 13 13 12 11 11 11 9 8 8 8 8 8 7 6 6 6 7 7 6 5 5 5 5 5 5 5 4 5 6 6 7 9 11 12 12 12 13 14 16 17 17 17 18 18 19 19 19 19 20 20 19 18 18 18 18 17 16 16 17 17 17 16 16 16 15
14 14 14 13 13 14 14 14 14 14 14 14 13 13 12 12 13 14 14 13 12 13 13 13 13 12 11 10 9 9 8 8 8 7 7 7 6 6 6 5 4 4 4 4 4 4 4 4 4 4 5 5 7 9 10 10 10 11 13 14 15 16 15 16 17 18 18 19 19 20 20 19 19 19 18 18 18 18 17 17 17 17 17 16 16 16
13 13 13 13 13 13 14 14 14 14 14 13 12 12 12 11 12 13 13 13 13 13 13 13 14 12 10 10 10 10 9 9 8 8 7 7 6 6 5 4 3 3 3 3 3 3 3 4 4 4 4 4 5 6 6 6 7 8 10 11 13 14 14 14 15 16 17 17 18 19 19 19 19 18 18 19 19 19 18 18 18 18 17 18 17 17
13 11 12 12 12 12 13 14 14 15 14 13 12 12 12 11 11 11 11 12 12 12 12 12 12 11 10 11 10 9 9 9 8 8 7 6 6 5 5 4 3 3 3 3 3 3 3 3 3 4 4 4 4 4 4 4 4 5 6 8 9 11 12 13 13 14 15 16 16 17 18 18 18 18 19 19 19 19 19 19 19 18 18 19 19 18
13 12 11 11 10 11 12 13 14 14 14 13 12 12 12 12 11 11 11 11 11 11 11 11 11 11 11 11 11 10 9 9 8 7 6 6 6 5 4 3 3 3 3 3 3 4 3 3 3 4 4 4 4 4 4 4 4 4 5 5 7 8 10 11 11 12 13 14 15 16 16 17 17 17 18 19 20 20 20 20 20 20 20 19 19 20
11 12 12 11 10 11 11 12 13 14 14 13 11 11 12 13 13 13 12 12 12 12 12 12 13 13 13 12 11 10 9 8 7 7 6 6 5 5 4 4 3 2 3 4 4 4 4 4 4 4 4 4 4 4 4 4 4 4 3 4 5 6 8 8 9 9 10 11 13 14 14 14 14 15 15 16 17 19 19 18 19 20 20 20 20 21
11 12 12 11 11 10 10 11 12 13 14 14 13 13 14 14 15 15 14 13 13 13 13 13 13 13 13 13 12 10 9 8 7 7 7 7 6 5 4 4 4 3 4 4 4 4 4 4 4 4 4 4 4 3 3 3 3 3 3 3 4 4 5 6 6 7 8 9 10 11 12 13 13 13 14 14 14 16 17 17 18 19 19 19 20 20
12 12 11 11 10 10 9 9 11 13 14 14 13 14 14 14 13 14 14 13 13 13 13 12 13 13 13 13 12 11 10 9 8 7 7 7 7 6 5 5 4 5 5 5 5 5 5 5 5 5 5 4 3 3 2 3 3 3 3 3 3 4 4 4 5 5 6 7 8 9 10 11 12 13 13 13 13 14 15 16 17 18 18 18 18 19
12 11 11 10 10 9 9 9 9 10 12 12 13 13 13 13 12 12 12 13 13 14 13 12 13 14 13 12 12 12 11 10 8 7 7 7 7 6 6 5 5 6 6 6 5 5 5 6 6 6 5 5 4 4 3 3 3 4 3 3 3 3 3 3 4 4 4 5 6 7 8 10 11 12 13 13 13 13 14 15 15 16 17 17 17 18
13 12 11 11 10 10 10 9 8 7 8 9 10 11 11 12 12 12 12 12 13 14 14 13 13 14 14 14 13 12 12 11 8 7 8 8 7 7 6 6 6 7 7 6 6 5 5 5 6 5 5 5 5 4 4 3 4 4 4 3 3 3 3 3 3 3 3 4 5 6 7 8 9 10 11 12 12 12 13 13 13 14 15 15 16 16
14 14 13 11 11 11 10 8 7 7 7 8 8 8 9 10 11 12 12 11 12 14 15 14 14 15 16 15 15 15 13 11 9 9 9 9 8 8 8 7 8 8 7 7 7 6 6 5 5 5 5 5 5 4 4 4 4 4 4 4 4 3 3 3 3 3 3 4 4 5 6 7 8 9 10 11 11 12 13 13 13 13 14 14 15 15
13 14 14 12 11 11 10 9 8 9 8 8 7 7 7 9 10 12 12 11 11 12 14 14 14 15 17 17 17 17 16 13 12 12 11 10 10 9 9 8 8 8 8 8 8 8 7 6 6 6 5 5 5 5 5 5 5 4 4 3 3 3 3 3 3 3 4 4 4 5 6 7 8 9 10 10 10 11 12 13 13 14 14 15 15 15
10 12 12 12 12 12 11 10 9 8 8 8 8 8 8 8 9 10 10 10 10 11 12 12 13 15 16 16 16 18 17 16 16 15 13 11 10 10 9 9 9 8 8 7 7 8 8 7 7 6 5 5 4 5 6 6 6 5 4 4 4 3 3 3 4 4 5 5 6 6 7 7 8 9 9 10 10 11 12 13 13 14 15 15 16 16
8 9 9 10 11 11 11 10 9 8 8 8 9 9 9 8 9 9 9 9 10 10 10 10 11 12 13 12 12 13 14 15 16 15 14 12 11 10 10 9 9 8 8 8 8 7 7 8 8 7 6 5 5 6 6 6 6 5 5 5 5 5 5 5 5 6 6 7 7 7 7 8 8 9 9 10 10 11 12 12 13 14 15 16 17 17
8 8 8 9 10 10 10 9 9 9 9 8 9 10 9 9 9 9 8 8 9 10 10 11 11 12 11 11 10 10 10 12 13 14 13 12 11 10 10 9 8 8 8 8 8 8 8 8 8 8 7 7 6 6 6 6 6 6 6 7 7 7 8 8 8 8 8 8 8 8 8 9 9 10 10 11 12 13 13 14 14 15 15 16 17 17
8 7 7 8 9 10 10 9 9 9 9 9 9 9 9 9 9 8 8 9 10 10 11 11 12 12 11 11 11 11 11 12 13 13 13 12 11 10 10 9 9 8 7 7 8 8 8 8 8 8 7 7 6 6 6 6 6 7 7 7 7 8 9 10 10 10 10 10 10 10 10 10 11 11 12 12 13 14 14 15 15 15 15 16 16 16
8 7 6 6 8 9 9 9 9 9 9 9 9 9 9 9 9 8 9 10 11 10 10 10 11 11 11 11 12 13 13 13 13 12 12 12 11 11 10 10 10 9 8 8 8 8 8 8 8 7 7 7 7 6 7 7 7 8 8 8 9 9 9 10 10 10 10 10 11 11 12 12 13 13 14 14 14 14 15 15 15 16 16 16 16 17
6 7 7 7 8 9 9 9 9 9 9 8 9 10 9 9 9 10 10 11 11 11 11 11 10 11 12 11 12 13 13 14 13 13 12 12 12 11 11 11 11 10 9 9 8 8 8 8 8 8 8 8 8 8 8 8 9 9 10 10 11 11 11 11 11 11 12 12 13 14 14 15 15 15 16 16 16 16 16 17 17 18 18 18 18 19
4 5 6 6 6 6 7 9 9 9 8 8 8 9 9 9 9 10 10 11 11 12 12 12 11 11 12 12 12 12 13 13 13 13 12 12 12 12 12 11 11 11 10 10 9 9 9 8 9 9 9 9 9 10 10 10 10 11 11 12 13 13 13 13 13 13 14 14 14 15 16 16 16 17 17 18 18 18 19 19 19 20 20 21 21 22
5 4 5 5 5 5 5 6 7 8 8 7 8 8 8 8 9 10 10 10 11 12 12 12 12 12 12 12 12 12 12 12 12 12 12 12 11 11 11 11 12 11 11 11 10 10 10 10 10 10 10 11 11 11 12 12 12 12 13 13 14 14 14 14 14 14 14 15 15 15 16 16 17 18 19 19 20 20 20 21 21 22 22 23 24 24
5 5 5 5 6 6 4 4 5 6 6 6 6 7 7 8 9 10 10 11 12 12 12 12 13 13 12 12 12 12 12 12 12 12 12 12 11 11 11 12 12 12 12 12 12 12 11 11 11 11 11 12 12 12 12 12 13 13 13 14 14 14 14 14 14 15 15 15 15 16 16 17 17 18 19 20 20 21 22 22 22 23 23 24 25 25
5 5 5 5 5 5 4 4 4 4 4 4 4 5 5 7 9 10 11 11 11 11 11 12 13 13 13 12 12 12 12 12 12 12 12 12 12 12 12 12 12 12 12 12 13 13 13 12 12 12 12 12 12 12 12 12 13 13 14 14 14 14 14 15 15 15 16 16 17 17 17 18 18 19 19 20 21 21 22 23 23 23 24 25 25 26
5 5 5 6 5 5 5 5 5 5 5 5 5 5 5 6 8 10 11 11 10 9 10 11 11 12 13 13 13 13 13 12 12 12 12 12 12 12 12 12 12 12 12 12 13 13 13 13 13 13 13 13 13 13 13 13 14 14 14 15 15 16 16 16 16 16 17 17 18 18 18 19 19 20 20 20 21 21 22 23 23 24 24 25 25 26
4 5 5 6 6 5 5 6 7 6 5 6 6 7 7 7 8 10 11 11 10 10 10 11 11 12 12 13 13 14 14 13 13 12 12 12 12 12 13 13 13 13 13 13 13 13 13 14 14 14 14 14 15 15 15 15 15 16 16 16 17 17 17 17 17 18 18 18 18 19 19 19 19 20 20 20 21 21 22 22 22 23 23 24 25 25
3 4 5 5 5 5 6 6 6 6 7 7 8 7 8 8 8 9 10 10 10 10 11 11 11 12 12 13 13 14 13 13 13 13 13 13 14 14 14 14 14 14 14 14 14 14 15 15 15 15 15 16 16 16 16 17 17 17 17 18 18 18 18 18 19 19 19 19 19 19 19 19 20 20 20 21 21 22 22 22 22 23 23 24 25 25
Wind_Direction
240 239 239 240 239 238 239 240 242 243 245 247 249 251 252 255 257 256 258 258 255 257 255 252 253 251 248 247 243 237 233 233 233 232 231 228 228 229 230 230 230 230 231 230 229 228 226 223 225 232 234 232 231 227 222 219 216 217 219 221 222 222 222 220 218 216 214 212 212 210 210 210 208 208 210 211 212 213 214 216 220 223 226 229 229 228
240 239 240 239 237 237 239 239 239 242 245 249 251 254 256 255 258 258 261 262 256 254 252 249 253 252 248 247 246 240 235 234 233 232 231 229 229 229 230 231 230 231 232 232 229 226 225 223 226 233 235 231 227 225 223 219 217 218 218 219 220 218 216 214 214 215 213 213 213 212 212 211 209 209 209 209 211 213 213 215 219 222 225 228 229 230
239 240 238 236 236 238 242 240 238 242 245 249 251 255 257 256 259 259 260 262 255 251 251 251 254 255 252 249 247 244 241 238 235 233 232 230 229 229 229 229 229 229 231 230 227 225 224 224 226 231 233 230 226 225 224 221 219 219 218 219 219 215 212 212 213 214 212 213 213 212 212 209 208 208 207 208 210 211 212 215 218 221 224 227 229 230
239 242 237 233 234 236 241 240 239 244 248 249 251 253 254 255 257 258 258 260 254 251 253 255 257 255 252 248 246 244 244 244 240 236 235 233 232 229 227 227 226 227 227 226 225 224 223 223 225 230 231 228 225 224 221 221 222 221 219 218 217 214 211 210 210 210 209 208 208 209 209 208 207 207 206 208 210 212 213 214 216 218 221 224 225 225
239 243 236 233 236 236 238 240 239 245 250 251 251 251 253 252 252 254 259 263 258 253 250 253 256 253 248 247 245 243 245 246 242 238 236 234 234 232 228 226 225 225 225 225 224 223 223 223 224 228 229 226 225 224 221 222 224 221 218 216 215 214 211 209 208 208 207 205 205 204 205 206 207 208 209 210 211 213 213 213 214 214 215 216 217 218
238 238 233 232 238 237 236 238 239 243 250 253 251 248 249 248 249 251 256 261 259 252 246 248 252 249 245 246 244 244 247 248 244 239 236 234 233 232 229 226 223 223 223 224 225 224 223 223 222 226 226 224 225 225 224 225 223 221 219 217 215 213 211 210 209 209 208 206 204 203 204 207 207 208 211 212 212 211 211 212 211 210 209 210 212 214
239 234 232 232 234 233 234 238 238 239 246 254 251 245 244 245 247 247 246 248 251 249 245 249 253 252 250 248 245 248 252 251 246 241 237 233 230 229 227 223 219 219 220 223 225 224 222 221 221 224 224 223 225 226 226 227 224 221 220 217 214 212 211 211 210 210 209 206 204 204 206 208 208 208 211 212 211 209 209 209 208 208 208 209 210 212
238 233 234 235 233 233 235 238 236 232 239 249 249 244 241 241 241 239 238 241 247 251 250 250 251 252 253 250 248 255 259 254 247 241 235 229 226 224 222 219 215 215 217 221 223 222 219 219 219 222 223 222 224 227 227 226 223 220 218 215 212 211 210 210 211 210 207 205 204 205 208 209 209 208 208 209 209 209 209 207 208 210 210 210 212 213
236 233 232 232 234 235 235 236 229 225 237 245 242 242 239 237 236 233 237 242 247 253 250 245 244 246 249 248 250 258 260 255 245 235 227 220 218 218 215 213 211 212 217 220 223 221 218 218 218 219 220 220 223 227 226 224 222 219 216 214 211 210 210 210 210 209 206 204 204 206 208 208 208 208 207 206 205 206 207 207 208 211 212 212 214 214
237 235 232 228 231 232 230 230 223 220 234 240 234 240 240 236 236 235 239 242 243 248 246 238 238 245 249 249 253 257 257 250 238 226 215 208 210 213 211 208 206 209 214 218 221 218 215 217 216 215 216 217 222 227 225 223 221 218 216 214 212 210 211 211 209 207 205 204 205 206 207 207 205 205 206 205 203 204 206 206 207 210 212 214 214 214
238 238 236 232 229 227 225 226 223 222 230 233 230 236 237 234 236 238 242 242 241 245 244 238 237 243 249 249 249 252 249 240 229 222 215 207 206 209 207 205 204 206 211 215 216 214 213 214 213 212 214 218 223 225 223 223 220 218 217 215 213 212 212 211 209 207 206 206 206 207 207 206 203 203 203 203 203 204 204 204 205 208 211 213 213 214
239 237 236 234 229 224 222 223 226 229 232 234 235 235 233 233 233 235 238 238 241 244 243 242 239 237 241 241 242 251 247 233 226 223 221 215 209 206 205 204 203 205 209 210 209 211 213 212 209 210 214 220 225 225 224 223 221 219 218 216 215 213 212 211 209 208 207 207 207 208 207 205 203 202 202 202 203 203 202 201 202 204 206 210 212 214
239 237 237 236 229 222 221 224 227 229 230 231 234 231 230 233 232 235 237 238 243 244 240 241 236 234 239 239 242 253 246 230 227 224 220 215 208 204 204 203 202 203 206 207 211 218 219 213 209 212 215 219 223 224 224 222 221 221 220 219 216 215 213 211 210 208 206 207 208 207 206 204 203 203 202 202 202 202 201 202 202 203 205 208 211 214
238 238 235 232 229 220 218 223 225 224 224 225 227 224 223 228 232 236 237 242 247 246 242 237 231 234 237 234 236 245 237 223 219 215 212 208 203 200 198 197 199 203 207 212 217 221 217 212 212 217 220 222 222 222 223 221 221 222 222 221 220 218 215 210 207 206 205 207 208 207 206 205 204 204 203 203 203 202 203 205 205 206 208 210 213 216
233 238 229 223 224 216 213 220 223 221 222 225 227 226 225 226 231 237 237 241 245 242 237 229 226 231 229 224 228 231 224 214 206 201 199 197 195 195 196 198 203 206 209 212 215 215 212 211 216 222 224 224 221 220 221 220 220 222 222 222 222 221 216 208 205 205 206 207 208 206 205 204 204 204 204 206 206 205 206 207 208 209 209 212 217 220
232 239 231 222 222 215 213 218 219 220 225 229 228 227 230 231 231 239 242 241 241 239 234 227 228 231 227 225 226 221 214 209 207 201 193 191 192 196 202 206 209 210 209 211 212 212 211 211 217 225 226 224 222 221 221 218 218 220 220 220 221 220 217 211 206 205 207 207 206 203 202 203 204 204 205 208 209 208 208 208 209 210 210 212 218 223
230 235 230 223 219 216 218 219 219 224 224 223 224 224 231 235 231 234 239 239 240 242 238 231 231 230 224 223 221 216 213 214 217 212 200 196 195 201 208 209 211 212 212 214 214 213 215 215 220 227 227 222 220 221 220 216 215 216 216 217 216 216 214 211 208 207 207 207 205 203 202 203 204 205 208 210 210 210 211 210 209 210 211 214 220 225
229 232 230 222 216 217 223 221 221 228 224 220 224 224 226 234 233 232 236 237 238 241 240 233 233 228 222 220 218 216 218 221 223 219 210 202 196 200 206 206 209 212 215 216 213 214 218 219 221 225 225 222 219 220 219 214 213 213 214 215 213 212 210 208 207 208 209 207 206 205 205 205 207 208 211 212 211 211 211 210 209 211 215 220 224 226
228 232 231 222 217 220 223 220 220 226 227 227 228 224 225 231 230 228 232 235 234 238 238 231 232 230 224 221 219 219 222 228 227 217 209 205 203 207 206 203 206 209 214 213 209 213 219 218 219 221 223 222 220 221 218 213 211 212 213 214 213 211 208 206 207 209 209 208 208 208 207 208 209 210 212 212 211 212 211 210 210 214 219 223 226 225
225 229 229 222 220 222 223 223 223 223 225 226 226 225 229 234 232 228 230 235 235 235 234 230 229 228 225 221 223 224 224 229 230 219 211 209 209 212 210 205 206 207 212 214 210 214 220 220 220 221 221 221 219 220 218 213 212 212 212 214 213 209 207 207 209 210 210 209 208 208 209 210 210 211 211 211 212 214 215 214 215 217 221 223 225 225
224 226 227 223 221 222 223 224 226 225 224 224 223 224 227 230 232 232 232 236 237 232 229 230 229 226 223 223 225 225 223 226 226 218 216 219 218 218 215 211 209 209 212 214 214 218 225 226 226 225 224 222 220 219 218 215 214 213 212 213 212 210 209 210 211 211 211 211 210 209 210 210 211 211 213 213 215 218 219 218 218 219 221 222 224 226
224 225 225 225 226 227 227 227 227 228 229 227 227 228 227 226 226 228 231 233 235 233 229 229 231 227 225 224 224 225 223 223 222 215 218 228 228 225 221 216 214 215 213 213 217 224 230 232 232 231 228 225 223 221 219 217 217 215 214 214 214 213 212 213 212 211 211 212 213 212 211 212 212 214 216 217 218 220 220 220 219 219 221 223 225 227
224 225 225 226 230 231 231 230 229 230 229 227 229 230 230 228 226 229 233 229 227 231 230 231 233 231 227 225 223 224 222 220 221 218 218 225 228 226 223 219 216 216 216 220 226 231 236 237 235 233 231 229 228 225 222 220 220 219 217 216 217 216 214 213 213 212 213 214 213 213 213 214 214 216 217 218 220 221 222 222 220 220 222 223 226 228
224 225 223 224 229 231 229 227 226 227 226 225 228 229 229 230 228 231 237 232 224 224 226 230 233 231 229 225 220 219 219 219 223 224 221 225 230 226 220 217 214 216 224 232 236 240 248 248 238 231 229 230 231 229 225 222 221 220 219 218 219 217 214 214 214 215 217 216 215 215 216 216 216 217 218 220 221 222 223 223 221 221 223 224 226 226
223 223 221 219 223 225 225 224 224 224 225 226 228 230 232 231 228 229 234 233 228 226 226 230 232 230 226 223 219 216 215 219 224 224 222 226 231 229 225 222 219 221 230 236 238 243 255 255 239 230 229 229 229 227 224 222 220 220 221 220 220 218 215 214 216 217 218 219 218 218 218 218 219 220 219 220 221 222 222 221 220 221 222 223 224 224
222 225 223 221 223 224 224 226 226 226 227 227 228 231 234 233 231 231 229 228 229 227 226 229 228 221 218 217 218 217 213 213 217 217 216 221 227 229 231 231 228 228 230 232 234 239 248 252 238 231 228 225 224 224 224 223 219 219 222 221 220 218 216 215 216 217 219 220 220 220 219 221 222 222 221 219 219 220 220 219 219 220 221 221 222 223
224 228 229 226 227 229 229 230 230 228 227 228 230 233 235 236 234 231 227 228 229 223 226 232 224 212 212 215 217 217 213 210 212 212 210 215 222 225 230 232 229 225 222 222 226 229 235 239 232 227 224 220 220 222 225 224 220 219 223 222 220 218 216 216 217 218 219 220 222 223 223 225 225 223 221 220 219 220 219 218 218 220 221 221 220 221
226 228 231 228 228 231 232 231 230 228 226 227 230 232 235 237 233 228 228 232 229 224 228 229 217 210 215 220 219 217 213 209 209 208 207 211 217 221 225 223 216 215 213 210 216 221 222 224 224 228 230 224 220 221 224 227 226 223 223 222 218 216 216 218 219 219 221 224 226 228 228 229 228 226 225 223 222 222 221 220 220 221 223 221 219 220
222 226 231 230 228 232 233 230 226 223 224 226 228 230 233 234 230 227 231 236 235 233 230 219 211 215 222 223 222 220 213 208 204 202 203 207 212 216 214 204 201 214 212 200 206 213 217 220 217 215 216 215 216 216 219 225 226 221 218 216 213 213 215 219 220 221 224 228 231 233 232 231 230 230 229 226 225 224 224 224 223 222 224 224 222 222
222 225 230 229 228 233 235 231 225 223 224 226 229 230 229 227 224 223 228 234 232 229 222 208 207 220 227 222 221 220 214 205 198 197 201 205 208 208 203 196 198 206 198 194 208 207 196 190 185 181 182 185 191 193 194 198 199 199 203 205 206 209 214 218 220 223 227 230 233 235 233 230 231 233 231 228 228 227 226 226 225 225 227 229 227 226
225 225 228 229 228 232 236 232 226 223 222 222 227 232 231 227 224 225 229 232 228 219 212 208 210 221 225 219 215 215 212 205 200 199 203 210 214 209 202 204 211 201 179 176 186 183 170 161 161 163 163 164 170 181 189 191 185 183 189 197 202 208 213 217 221 225 229 231 233 234 233 231 233 234 233 230 230 229 228 230 231 230 231 231 230 229
228 223 224 228 226 229 234 232 228 227 224 222 227 237 239 234 229 227 229 233 230 219 210 212 219 222 222 216 212 213 212 208 207 206 205 210 219 219 213 215 223 209 179 167 163 159 159 160 161 159 156 154 155 166 186 198 194 189 192 197 202 208 213 217 221 226 229 231 231 232 232 231 230 230 228 227 226 226 227 229 230 229 230 232 233 234
229 222 221 224 224 225 232 232 229 230 228 226 232 239 240 236 230 228 230 235 235 225 218 221 223 221 218 215 212 213 215 214 216 217 213 210 213 215 214 216 219 217 208 202 196 184 176 176 177 173 170 165 159 158 173 189 191 189 186 181 184 195 203 210 217 223 227 229 228 229 229 228 228 226 223 222 222 222 224 226 227 229 233 236 237 237
226 223 221 221 220 221 228 231 229 229 228 228 234 238 237 235 230 226 229 235 233 226 224 224 219 214 215 215 211 211 213 213 213 217 216 214 215 214 212 214 217 217 219 221 217 205 196 194 194 191 188 190 194 195 184 180 184 184 176 169 166 172 183 193 204 214 220 223 224 225 225 224 224 222 219 219 223 225 228 230 231 234 238 239 238 237
220 219 219 219 218 216 220 224 226 229 229 227 233 238 238 237 230 224 229 235 230 219 215 216 216 215 215 214 210 207 203 200 203 211 214 216 220 218 213 215 221 221 223 227 225 216 210 209 205 199 195 199 205 205 193 185 185 183 180 176 170 169 175 183 195 209 217 220 221 222 222 221 221 220 219 223 228 230 232 234 235 236 237 237 237 238
226 221 217 220 223 218 218 223 224 222 221 220 225 234 237 236 233 229 230 237 235 225 217 217 219 216 213 211 210 207 202 197 203 217 221 220 222 221 216 216 217 218 222 227 228 223 218 216 210 199 195 197 196 191 188 192 190 184 183 186 185 184 184 183 190 207 218 224 226 226 224 221 220 221 223 227 230 229 230 233 235 236 236 235 235 236
232 226 218 219 225 219 212 215 217 213 214 215 219 225 229 234 238 234 230 232 234 229 221 219 217 215 213 211 208 209 209 209 215 226 228 226 224 221 217 216 215 215 216 219 223 224 220 214 206 197 192 193 191 184 181 184 181 172 170 175 179 184 187 189 198 210 217 224 228 230 230 229 227 226 228 230 231 228 229 234 238 238 238 238 238 238
232 228 222 220 223 219 209 206 212 216 217 218 222 225 229 235 239 234 229 228 227 222 217 216 215 213 212 211 212 217 220 219 222 228 232 230 225 219 215 214 214 213 211 210 214 218 217 210 204 200 193 188 190 191 189 187 182 174 171 176 183 187 189 198 214 226 230 230 230 231 232 233 233 232 232 233 233 232 233 237 242 243 243 243 244 244
221 221 220 218 219 218 214 211 215 220 221 223 229 236 241 241 234 228 227 228 222 213 209 210 213 212 212 214 220 224 225 223 224 227 229 226 221 216 213 211 208 207 206 203 201 205 208 207 206 207 203 198 203 206 201 195 191 189 194 202 207 208 211 219 229 236 238 238 237 236 236 236 236 236 236 236 237 237 238 241 245 248 248 248 248 248
207 211 216 217 217 217 217 216 219 222 224 228 238 247 249 242 230 226 229 226 213 204 198 199 202 203 206 210 216 222 225 223 220 218 218 216 213 210 207 203 200 200 202 201 198 201 206 208 209 211 213 214 217 216 211 207 204 207 219 226 228 236 245 247 245 242 240 239 239 239 240 242 243 244 244 243 243 244 245 246 249 251 251 252 251 251
210 217 221 220 216 215 215 214 219 226 227 233 246 254 249 236 226 229 234 220 201 193 188 186 187 190 197 202 203 207 211 206 200 201 204 205 203 200 199 198 198 198 201 204 205 208 211 210 207 207 210 212 212 212 218 221 222 229 239 241 243 250 255 256 253 248 245 244 244 244 245 247 249 250 251 252 253 253 253 254 255 255 254 254 254 252
223 230 230 224 218 216 213 209 213 220 226 240 252 249 237 228 226 231 229 209 194 187 184 183 187 195 200 200 192 186 182 179 182 188 192 193 194 196 198 200 199 198 203 208 209 211 212 209 203 201 203 207 209 215 227 234 237 243 248 247 249 253 256 255 253 251 251 251 249 249 249 251 254 255 256 257 257 256 256 257 259 258 256 254 252 250
229 229 223 220 220 217 213 211 213 218 230 249 250 234 223 226 229 226 214 199 193 192 191 189 195 199 197 192 187 184 182 182 184 187 187 189 193 195 198 199 197 197 202 206 208 211 211 208 207 208 213 222 230 237 244 247 250 253 254 253 254 257 257 256 254 254 256 257 257 256 256 257 260 260 259 260 260 259 259 260 260 259 257 255 254 254
229 227 220 224 229 224 217 217 221 226 236 247 239 224 222 229 227 219 209 199 197 202 201 199 200 197 189 186 187 189 190 192 196 197 197 199 201 203 205 206 205 207 210 212 213 215 216 216 221 226 232 240 247 252 256 258 257 256 256 257 259 261 261 260 259 258 260 261 262 263 262 263 263 263 262 262 263 263 262 261 261 261 260 258 257 259
210 212 210 216 220 214 212 216 220 225 231 234 229 223 225 226 220 211 204 198 199 203 203 200 198 194 187 185 188 191 193 195 199 203 207 209 211 213 215 216 216 217 219 220 221 223 226 228 232 237 243 249 255 259 262 262 260 258 259 260 261 263 264 264 263 263 262 262 263 263 264 265 266 265 265 265 264 264 263 263 262 263 262 262 262 263
193 195 196 195 189 184 192 211 220 221 224 227 227 224 222 221 216 209 204 202 202 201 200 197 195 192 189 188 191 194 196 197 199 204 209 212 215 217 218 220 222 223 224 227 230 234 238 241 244 248 252 256 259 262 264 264 263 262 263 264 265 265 266 266 267 266 266 266 265 265 265 264 264 265 265 264 264 264 264 264 265 265 265 265 265 266
194 200 196 191 194 200 204 213 217 214 215 220 222 220 218 215 212 209 207 207 207 203 199 197 193 191 192 195 197 198 198 200 202 206 211 215 218 220 221 223 225 227 229 233 237 242 246 250 252 254 256 258 260 262 263 264 264 264 264 265 266 267 267 267 268 268 268 268 267 267 266 265 264 265 265 264 265 265 265 266 267 268 269 269 269 269
197 203 198 186 184 189 189 187 186 182 183 190 192 196 203 204 201 201 201 201 202 203 202 201 199 197 200 203 204 205 206 208 210 211 216 221 222 223 225 226 228 230 232 236 241 245 249 252 254 255 257 258 260 262 263 264 264 265 266 266 266 266 266 266 267 267 268 269 268 268 268 267 267 267 267 267 267 268 268 269 270 271 272 272 272 271
214 206 198 189 179 175 180 186 188 182 176 175 168 160 161 167 174 183 187 184 181 187 197 204 205 206 206 208 210 211 213 217 220 221 222 225 226 228 231 232 234 236 237 241 244 248 250 252 253 255 257 258 260 262 263 264 265 266 267 267 267 267 267 267 268 269 270 270 270 270 270 271 272 272 271 271 271 271 272 273 273 273 273 273 273 273
210 194 198 198 192 193 202 209 213 208 196 191 185 172 163 158 157 164 173 176 176 183 195 205 211 213 214 216 218 218 219 223 228 231 231 233 235 236 237 238 240 242 244 247 250 252 253 254 255 256 258 260 262 264 266 267 268 269 269 269 269 269 269 269 269 270 271 271 272 273 273 273 274 274 275 275 275 274 274 275 277 277 276 275 276 276
204 204 216 211 196 197 205 211 216 215 207 204 202 195 190 186 175 169 174 182 189 195 201 206 211 216 221 225 227 228 229 232 237 239 240 240 240 239 239 241 243 245 248 251 253 254 255 256 257 259 261 263 265 267 269 270 271 271 271 271 271 271 271 271 271 271 271 272 273 274 274 274 275 276 276 276 276 275 275 274 276 277 277 277 277 277